(369926) = 2003 KO33 = 2008 GF19 = 2013 EP80

Discovered at Kitt Peak on 2002-01-08 by Spacewatch.

Orbit

Orbit type: Main Belt

Note: WebGL enabled browser required.

epoch2024-03-31.0
epoch JD2460400.5
perihelion date2022-06-30.98034
perihelion JD2459761.48034
argument of perihelion (°)262.86392
ascending node (°)152.51307
inclination (°)11.43777
eccentricity0.0668110
perihelion distance (AU)2.9019651
Tisserand w.r.t. Jupiter3.2
ΔV w.r.t. Earth (km/sec)11.2
semimajor axis (AU)3.1097293
mean anomaly (°)114.85084
mean daily motion (°/day)0.17972980
aphelion distance (AU)3.317
period (years)5.48
P-vector [x]0.55907920
P-vector [y]0.81723462
P-vector [z]0.13985000
Q-vector [x]-0.82404697
Q-vector [y]0.52908071
Q-vector [z]0.20253443
absolute magnitude15.89
phase slope0.15
uncertainty0
referenceMPEC 2024-F14
observations used321
oppositions14
arc length (days)8104
first opposition used2002
last opposition used2024
residual rms (arc-secs)0.62
perturbers coarse indicatorM-v
perturbers precise indicator003Ek
first observation date used2002-01-08.0
last observation date used2024-03-17.0
computer nameMPCLINUX
JD of orbit computation2456877.802090
perihelion JD uncertainty (days)3.8020E-04
argument of perihelion uncertainty (°)6.7181E-05
ascending node uncertainty (°)2.9516E-05
inclination uncertainty (°)4.8010E-06
eccentricity uncertainty 6.1690E-08
perihelion distance uncertainty (AU)1.9715E-07
Minimum Orbit Intersection Distances (in AU)
for orbit epoch: 2460400.5, reference: E2024-GH2
Mercury2.59154
Venus2.19352
Earth1.94153
Mars1.40737
Jupiter1.93741
Saturn6.12041
Uranus15.2542
Neptune26.9092

Observations

316 total observations over interval: 2002 01 08.49228 – 2024 03 17.458755
These data are available for download (format description).

Date (UT) J2000 RA J2000 Dec Magn Location Ref
2002 01 08.49228 11 49 19.38 +02 52 47.7 22.0 V 691 – Steward Observatory, Kitt Peak-Spacewatch MPS 473090
2002 01 08.52353 11 49 19.79 +02 52 51.3 21.7 V 691 – Steward Observatory, Kitt Peak-Spacewatch MPS 473090
2002 01 08.54783 11 49 20.15 +02 52 53.4 21.8 V 691 – Steward Observatory, Kitt Peak-Spacewatch MPS 473090
2002 03 09.29387 11 31 29.96 +08 21 17.5 20.3 V 291 – LPL/Spacewatch II MPS 473090
2002 03 09.31466 11 31 29.08 +08 21 27.1 20.3 V 291 – LPL/Spacewatch II MPS 473090
2002 03 09.33500 11 31 28.21 +08 21 36.4 20.3 V 291 – LPL/Spacewatch II MPS 473090
2003 05 27.32706 15 59 36.37 -03 58 37.6 20.7 V 291 – LPL/Spacewatch II MPS 82423
2003 05 27.33641 15 59 35.96 -03 58 37.8 21.3 V 291 – LPL/Spacewatch II MPS 82423
2003 05 27.34311 15 59 35.67 -03 58 37.2 21.5 V 291 – LPL/Spacewatch II MPS 82423
2003 06 01.33652 15 55 52.85 -03 50 54.2 22.1 V 691 – Steward Observatory, Kitt Peak-Spacewatch MPS 82423
2003 06 01.36569 15 55 51.55 -03 50 51.6 22.0 V 691 – Steward Observatory, Kitt Peak-Spacewatch MPS 82423
2003 06 01.39177 15 55 50.37 -03 50 49.9 21.8 V 691 – Steward Observatory, Kitt Peak-Spacewatch MPS 82423
2007 03 15.21000 08 31 34.53 +15 26 43.6 21.3 V G96 – Mt. Lemmon Survey MPS 473090
2007 03 15.21749 08 31 34.46 +15 26 45.8 21.4 V G96 – Mt. Lemmon Survey MPS 473090
2007 03 15.22497 08 31 34.35 +15 26 47.6 21.7 V G96 – Mt. Lemmon Survey MPS 473090
2007 03 15.23249 08 31 34.32 +15 26 49.7 21.6 V G96 – Mt. Lemmon Survey MPS 473090
2008 04 04.35910 14 07 36.84 +00 44 33.1 20.1 V G96 – Mt. Lemmon Survey MPS 245904
2008 04 04.36577 14 07 36.58 +00 44 35.4 19.9 V G96 – Mt. Lemmon Survey MPS 245904
2008 04 04.37243 14 07 36.33 +00 44 38.2 20.1 V G96 – Mt. Lemmon Survey MPS 245904
2008 04 05.36278 14 06 58.86 +00 51 04.1 20.5 V G96 – Mt. Lemmon Survey MPS 245904
2008 04 05.37123 14 06 58.53 +00 51 07.5 20.5 V G96 – Mt. Lemmon Survey MPS 245904
2008 04 05.37963 14 06 58.21 +00 51 10.1 20.3 V G96 – Mt. Lemmon Survey MPS 245904
2008 04 05.38804 14 06 57.88 +00 51 14.0 20.5 V G96 – Mt. Lemmon Survey MPS 245904
2010 08 12.38046 00 06 32.68 -03 40 44.3 20.6 V 691 – Steward Observatory, Kitt Peak-Spacewatch MPS 473090
2010 08 12.39825 00 06 32.43 -03 40 50.5 20.6 V 691 – Steward Observatory, Kitt Peak-Spacewatch MPS 473090
2010 08 12.41604 00 06 32.17 -03 40 56.7 20.8 V 691 – Steward Observatory, Kitt Peak-Spacewatch MPS 473090
2013 02 12.21220 11 57 13.23 +04 42 15.1 20.4 R J04 – ESA Optical Ground Station, Tenerife MPS 461730
2013 02 12.22378 11 57 12.98 +04 42 20.1 21.0 R J04 – ESA Optical Ground Station, Tenerife MPS 461730
2013 02 12.23535 11 57 12.69 +04 42 24.2 20.6 R J04 – ESA Optical Ground Station, Tenerife MPS 461730
2013 02 12.24692 11 57 12.47 +04 42 27.7 20.8 R J04 – ESA Optical Ground Station, Tenerife MPS 461730
2013 02 19.38418 11 54 01.18 +05 30 28.0   691 – Steward Observatory, Kitt Peak-Spacewatch MPS 461730
2013 02 19.40221 11 54 00.59 +05 30 35.7   691 – Steward Observatory, Kitt Peak-Spacewatch MPS 461730
2013 02 19.42007 11 54 00.02 +05 30 43.3   691 – Steward Observatory, Kitt Peak-Spacewatch MPS 461730
2013 03 02.27023 11 47 43.54 +06 51 00.5 20.3 V 691 – Steward Observatory, Kitt Peak-Spacewatch MPS 461730
2013 03 02.28790 11 47 42.87 +06 51 08.7 20.5 V 691 – Steward Observatory, Kitt Peak-Spacewatch MPS 461730
2013 03 02.30557 11 47 42.15 +06 51 16.5 20.5 V 691 – Steward Observatory, Kitt Peak-Spacewatch MPS 461730
2013 03 08.44509 11 43 37.254 +07 38 16.20 20.1 w F51 – Pan-STARRS 1, Haleakala MPS 459481
2013 03 08.45922 11 43 36.659 +07 38 22.75 20.1 w F51 – Pan-STARRS 1, Haleakala MPS 459481
2013 03 08.47334 11 43 36.057 +07 38 29.05 20.0 w F51 – Pan-STARRS 1, Haleakala MPS 459481
2013 03 08.48743 11 43 35.456 +07 38 35.51 20.0 w F51 – Pan-STARRS 1, Haleakala MPS 459481
2013 03 14.22794 11 39 36.62 +08 21 52.6 20.7 G G45 – Space Surveillance Telescope, Atom Site MPS 1610178
2013 03 14.24225 11 39 35.94 +08 21 58.3 19.3 G G45 – Space Surveillance Telescope, Atom Site MPS 1610178
2013 03 14.26605 11 39 34.93 +08 22 09.5 20.6 G G45 – Space Surveillance Telescope, Atom Site MPS 1610178
2013 03 14.33950 11 39 31.77 +08 22 42.0 20.9 G G45 – Space Surveillance Telescope, Atom Site MPS 1610178
2013 03 14.37302 11 39 30.31 +08 22 56.8 19.8 V G96 – Mt. Lemmon Survey MPS 459481
2013 03 14.37830 11 39 30.09 +08 22 59.0 19.9 V G96 – Mt. Lemmon Survey MPS 459481
2013 03 14.38359 11 39 29.84 +08 23 01.3 19.7 V G96 – Mt. Lemmon Survey MPS 459481
2013 03 14.38885 11 39 29.62 +08 23 03.8 19.9 V G96 – Mt. Lemmon Survey MPS 459481
2013 03 15.22470 11 38 54.77 +08 29 14.0 20.0 G G45 – Space Surveillance Telescope, Atom Site MPS 1610178
2013 03 15.23851 11 38 54.20 +08 29 19.8 20.7 G G45 – Space Surveillance Telescope, Atom Site MPS 1610178
2013 03 15.26336 11 38 53.12 +08 29 31.0 20.5 G G45 – Space Surveillance Telescope, Atom Site MPS 1610178
2013 03 15.33560 11 38 50.00 +08 30 03.2 20.3 G G45 – Space Surveillance Telescope, Atom Site MPS 1610178
2013 03 15.37907 11 38 48.13 +08 30 21.9 19.8 G G45 – Space Surveillance Telescope, Atom Site MPS 1610178
2014 05 07.44656 16 25 13.007 -05 26 45.03 20.8 w F51 – Pan-STARRS 1, Haleakala MPS 515225
2014 05 07.47098 16 25 12.024 -05 26 39.53 20.9 w F51 – Pan-STARRS 1, Haleakala MPS 515225
2014 05 07.48321 16 25 11.540 -05 26 36.92 20.9 w F51 – Pan-STARRS 1, Haleakala MPS 515225
2014 05 23.47552 16 13 44.726 -04 37 50.95 20.4 w F51 – Pan-STARRS 1, Haleakala MPS 517852
2014 05 23.48713 16 13 44.179 -04 37 49.33 20.5 w F51 – Pan-STARRS 1, Haleakala MPS 517852
2014 05 23.49874 16 13 43.641 -04 37 47.72 20.5 w F51 – Pan-STARRS 1, Haleakala MPS 517852
2014 05 27.09091 16 10 59.62 -04 30 19.0 20.5 R J04 – ESA Optical Ground Station, Tenerife MPS 519367
2014 05 27.10248 16 10 59.06 -04 30 18.0 21.3 R J04 – ESA Optical Ground Station, Tenerife MPS 519367
2014 05 27.11405 16 10 58.52 -04 30 16.4 20.5 R J04 – ESA Optical Ground Station, Tenerife MPS 519367
2014 05 27.12563 16 10 57.99 -04 30 15.1 20.6 R J04 – ESA Optical Ground Station, Tenerife MPS 519367
2014 06 23.21182 15 52 51.91 -04 25 12.8 21.2 V 691 – Steward Observatory, Kitt Peak-Spacewatch MPS 521285
2014 06 23.22514 15 52 51.47 -04 25 13.8 21.1 V 691 – Steward Observatory, Kitt Peak-Spacewatch MPS 521285
2014 06 23.23844 15 52 51.06 -04 25 15.0 21.0 V 691 – Steward Observatory, Kitt Peak-Spacewatch MPS 521285
2014 06 25.21372 15 51 52.96 -04 28 29.2   691 – Steward Observatory, Kitt Peak-Spacewatch MPS 521285
2014 06 25.22703 15 51 52.59 -04 28 30.4   691 – Steward Observatory, Kitt Peak-Spacewatch MPS 521285
2014 06 25.24034 15 51 52.16 -04 28 31.7   691 – Steward Observatory, Kitt Peak-Spacewatch MPS 521285
2014 06 26.30931 15 51 22.27 -04 30 28.5 20.8 V G96 – Mt. Lemmon Survey MPS 521285
2014 06 26.31441 15 51 22.14 -04 30 29.1 20.9 V G96 – Mt. Lemmon Survey MPS 521285
2014 06 26.31952 15 51 22.04 -04 30 29.2 20.5 V G96 – Mt. Lemmon Survey MPS 521285
2014 06 26.32461 15 51 21.84 -04 30 30.0 20.7 V G96 – Mt. Lemmon Survey MPS 521285
2014 07 27.28068 15 46 17.709 -06 15 58.23 21.4 w F51 – Pan-STARRS 1, Haleakala MPS 525466
2014 07 27.29283 15 46 17.792 -06 16 01.74 21.3 w F51 – Pan-STARRS 1, Haleakala MPS 525466
2014 07 27.30495 15 46 17.870 -06 16 04.96 21.4 w F51 – Pan-STARRS 1, Haleakala MPS 525466
2014 07 29.27272 15 46 36.190 -06 25 17.68 21.6 w F51 – Pan-STARRS 1, Haleakala MPS 525466
2014 07 29.28413 15 46 36.287 -06 25 20.89 21.5 w F51 – Pan-STARRS 1, Haleakala MPS 525466
2014 07 29.29553 15 46 36.386 -06 25 24.43 21.3 w F51 – Pan-STARRS 1, Haleakala MPS 525466
2014 07 30.27366 15 46 47.166 -06 30 03.61 21.6 w F51 – Pan-STARRS 1, Haleakala MPS 525466
2014 07 30.28518 15 46 47.279 -06 30 07.04 21.4 w F51 – Pan-STARRS 1, Haleakala MPS 525466
2014 07 30.31941 15 46 47.641 -06 30 17.02 21.4 w F51 – Pan-STARRS 1, Haleakala MPS 525466
2014 07 30.33089 15 46 47.762 -06 30 20.20 21.5 w F51 – Pan-STARRS 1, Haleakala MPS 525466
2015 06 29.48792 21 25 12.795 -08 21 19.33 20.5 i F51 – Pan-STARRS 1, Haleakala MPS 614583
2015 06 29.51248 21 25 12.381 -08 21 22.79 20.5 i F51 – Pan-STARRS 1, Haleakala MPS 614583
2015 06 29.52482 21 25 12.205 -08 21 24.42 20.6 i F51 – Pan-STARRS 1, Haleakala MPS 614583
